Satellite-Ground Cal/Val Site Overpasses Predictions

Prediction of Satellite NPP Overpassing Cal/Val Site: Antarctic Dome C

Ground Cal/Val Site Location: Latitude: -75.10, Longitude: 123.35; Satellite-Ground Site NADIR distance within 100 km.

Table of predicted overpasses for the next 14.0 days since TLE Epoch: 11/19/2022
Interval Starting Time Ending Time Minimum Distance Time Minimum Distance (km)
1 11/19/2022 07:25:59 11/19/2022 07:26:26 11/19/2022 07:26:12 39.57
2 11/21/2022 15:08:23 11/21/2022 15:08:30 11/21/2022 15:08:26 97.04
3 11/22/2022 14:49:22 11/22/2022 14:49:51 11/22/2022 14:49:36 14.27
4 11/24/2022 07:32:09 11/24/2022 07:32:39 11/24/2022 07:32:24 3.59
5 11/27/2022 14:55:34 11/27/2022 14:56:03 11/27/2022 14:55:49 21.57
6 11/28/2022 14:36:51 11/28/2022 14:37:06 11/28/2022 14:36:58 85.51
7 11/29/2022 07:38:23 11/29/2022 07:38:50 11/29/2022 07:38:37 32.06
8 11/30/2022 07:19:36 11/30/2022 07:19:54 11/30/2022 07:19:45 78.38
